Location: Rounton
(54.4000°N, 1.3500°W)
Time: 22:28:30
(UTC+01:00)

Vanguard 1 - Pass Details

Date: 25 February 2024
Orbit: 653 x 3825 km, 34.2° (Epoch: 21 April)

Event Time Altitude Azimuth Distance (km) Brightness Sun altitude
Rises 23:40:36 0° 261° (W) 6,727 14.4 -44.3°
Reaches altitude 10° 23:45:05 10° 254° (WSW) 6,064 14.0 -44.5°
Enters shadow 23:52:54 27° 236° (SW) 5,215 13.4 -44.7°
Maximum altitude 00:02:46 38° 196° (SSW) 4,905 - -44.8°
Drops below altitude 10° 00:22:16 10° 139° (SE) 6,621 - -44.9°
Sets 00:27:30 0° 132° (SE) 7,374 - -44.9°
